{"data":{"norad_id":51150,"epoch":"2026-09-20T03:35:10.237920Z","epoch_age_seconds":78474,"freshness":"FRESH","line1":"1 51150U 22005AY  26263.14942405  .00000278  00000+0  18886-4 0  9990","line2":"2 51150  53.1592 132.5678 0001195  93.0064 267.1076 15.35396574258281","mean_motion":15.35396574,"eccentricity":0.0001195,"inclination_deg":53.1592,"raan_deg":132.5678,"arg_perigee_deg":93.0064,"mean_anomaly_deg":267.1076,"bstar":1.8886e-5,"rev_number":25828,"period_min":93.786844674827,"perigee_km":458.92568786521,"apogee_km":460.55994114088,"semimajor_km":6837.879814503,"source":"CELESTRAK","updated_at":"2026-09-20T09:00:39.593367Z"}}